Change the Weather History Date:

Monday, March 3, 2014

  Actual Average Record
Temperature  
Mean Temperature 56 °F 47 °F  
Max Temperature 59 °F 54 °F 72 °F (1931)
Min Temperature 52 °F 41 °F 23 °F (1923)
Degree Days  
Heating Degree Days 9 18  
Month to date heating degree days 31 54  
Since 1 July heating degree days 2828 3228  
Cooling Degree Days 0 0  
Month to date cooling degree days 0 0  
Year to date cooling degree days 0 0  
Growing Degree Days 5 (Base 50)    
Moisture  
Dew Point 54 °F    
Average Humidity 98    
Maximum Humidity 100    
Minimum Humidity 87    
Precipitation  
Precipitation 0.14 in 0.28 in 1.70 in (1991)
Month to date precipitation 0.29 0.85  
Year to date precipitation 11.01 18.63  
Sea Level Pressure  
Sea Level Pressure 29.92 in    
Wind  
Wind Speed 7 mph (SSW)    
Max Wind Speed 14 mph    
Max Gust Speed 21 mph    
Visibility 8 miles    
Events      
T = Trace of Precipitation, MM = Missing Value Source: NWS Daily Summary

Daily Weather History Graph

Daily Weather History Graph

Search for Another Location

Airport or City:

Trip Planner

Search our weather history database for the weather conditions in past years. The results will help you decide how hot, cold, wet, or windy it might be!

Date:

Astronomy

Mar. 03, 2014 Rise Set
Actual Time 6:49 AM PST 6:08 PM PST
Civil Twilight 6:21 AM PST 6:37 PM PST
Nautical Twilight 5:48 AM PST 7:10 PM PST
Astronomical Twilight 5:15 AM PST 7:43 PM PST
Moon 7:56 AM PST (3/3) 9:24 PM PST (3/3)
Length of Visible Light 12h 16m
Length of Day
11h 18m
Waxing Crescent, 8% of the Moon is Illuminated
Mar 3
Waxing Crescent
Mar 8
First Quarter
Mar 16
Full
Mar 23
Last Quarter
Mar 30
New

Hourly Weather History & Observations

Time (PST) Temp. Dew Point Humidity Pressure Visibility Wind Dir Wind Speed Gust Speed Precip Events Conditions
12:15 AM 55.4 °F 53.6 °F 94% 29.90 in 10.0 mi SSW 12.7 mph 23.0 mph N/A   Overcast
12:35 AM 55.4 °F 53.6 °F 94% 29.89 in 10.0 mi South 15.0 mph 18.4 mph N/A   Overcast
12:55 AM 53.6 °F 53.6 °F 100% 29.89 in 10.0 mi South 10.4 mph - 0.01 in   Overcast
1:15 AM 53.6 °F 53.6 °F 100% 29.89 in 10.0 mi South 11.5 mph 18.4 mph 0.01 in   Overcast
1:35 AM 53.6 °F 53.6 °F 100% 29.88 in 10.0 mi South 11.5 mph - 0.01 in   Overcast
1:55 AM 53.6 °F 51.8 °F 94% 29.88 in 10.0 mi SW 13.8 mph - 0.03 in   Overcast
2:15 AM 55.4 °F 53.6 °F 94% 29.88 in 10.0 mi SSW 12.7 mph 21.9 mph 0.03 in   Overcast
2:35 AM 53.6 °F 53.6 °F 100% 29.88 in 10.0 mi South 12.7 mph 24.2 mph 0.04 in   Overcast
2:55 AM 53.6 °F 53.6 °F 100% 29.86 in 10.0 mi South 9.2 mph 16.1 mph 0.04 in   Overcast
3:15 AM 53.6 °F 53.6 °F 100% 29.86 in 7.0 mi South 5.8 mph - 0.03 in   Overcast
3:35 AM 53.6 °F 53.6 °F 100% 29.85 in 9.0 mi South 8.1 mph - 0.04 in   Overcast
3:55 AM 53.6 °F 53.6 °F 100% 29.83 in 10.0 mi South 8.1 mph - 0.05 in   Overcast
4:15 AM 53.6 °F 53.6 °F 100% 29.83 in 10.0 mi SSE 5.8 mph - N/A   Overcast
4:35 AM 53.6 °F 53.6 °F 100% 29.83 in 10.0 mi SSE 8.1 mph - 0.01 in   Overcast
4:55 AM 53.6 °F 53.6 °F 100% 29.82 in 10.0 mi SE 5.8 mph - 0.01 in   Overcast
5:15 AM 53.6 °F 53.6 °F 100% 29.82 in 10.0 mi SSE 5.8 mph - N/A   Overcast
5:35 AM 53.6 °F 53.6 °F 100% 29.82 in 10.0 mi SSE 4.6 mph - N/A   Overcast
5:55 AM 53.6 °F 51.8 °F 94% 29.81 in 10.0 mi SSE 4.6 mph - N/A   Overcast
6:15 AM 51.8 °F 51.8 °F 100% 29.81 in 10.0 mi SSE 4.6 mph - N/A   Overcast
6:35 AM 51.8 °F 51.8 °F 100% 29.82 in 10.0 mi South 5.8 mph - N/A   Overcast
6:55 AM 51.8 °F 51.8 °F 100% 29.83 in 10.0 mi South 4.6 mph - N/A   Overcast
7:15 AM 51.8 °F 51.8 °F 100% 29.84 in 10.0 mi SSE 3.5 mph - N/A   Overcast
7:35 AM 51.8 °F 51.8 °F 100% 29.85 in 10.0 mi SE 3.5 mph - N/A   Overcast
7:55 AM 53.6 °F 53.6 °F 100% 29.86 in 10.0 mi SE 3.5 mph - N/A   Overcast
8:15 AM 53.6 °F 53.6 °F 100% 29.87 in 10.0 mi SE 4.6 mph - N/A   Overcast
8:35 AM 53.6 °F 53.6 °F 100% 29.87 in 10.0 mi SSE 3.5 mph - N/A   Overcast
8:55 AM 55.4 °F 55.4 °F 100% 29.87 in 10.0 mi South 6.9 mph - N/A   Overcast
9:15 AM 57.2 °F 55.4 °F 94% 29.87 in 10.0 mi South 11.5 mph - N/A   Overcast
9:35 AM 57.2 °F 55.4 °F 94% 29.87 in 10.0 mi South 10.4 mph - N/A   Overcast
9:55 AM 59.0 °F 55.4 °F 88% 29.87 in 10.0 mi SSW 10.4 mph - N/A   Overcast
10:15 AM 57.2 °F 55.4 °F 94% 29.88 in 10.0 mi SSW 9.2 mph 16.1 mph N/A   Overcast
10:35 AM 57.2 °F 55.4 °F 94% 29.89 in 10.0 mi SW 13.8 mph 20.7 mph N/A   Overcast
10:55 AM 57.2 °F 55.4 °F 94% 29.90 in 10.0 mi SW 12.7 mph 20.7 mph N/A   Overcast
11:15 AM 57.2 °F 55.4 °F 94% 29.91 in 10.0 mi WSW 11.5 mph 16.1 mph N/A   Overcast
11:35 AM 55.4 °F 55.4 °F 100% 29.91 in 3.0 mi SW 11.5 mph 20.7 mph N/A   Overcast
11:55 AM 55.4 °F 53.6 °F 94% 29.91 in 9.0 mi SW 9.2 mph 18.4 mph N/A   Overcast
12:15 PM 55.4 °F 55.4 °F 100% 29.92 in 10.0 mi SW 9.2 mph - N/A   Overcast
12:35 PM 57.2 °F 55.4 °F 94% 29.92 in 10.0 mi WSW 15.0 mph 21.9 mph N/A   Overcast
12:55 PM 55.4 °F 55.4 °F 100% 29.93 in 2.5 mi WSW 12.7 mph 20.7 mph N/A   Overcast
1:15 PM 55.4 °F 55.4 °F 100% 29.93 in 2.5 mi SW 9.2 mph 18.4 mph N/A   Overcast
1:35 PM 55.4 °F 55.4 °F 100% 29.92 in 2.5 mi SW 11.5 mph 16.1 mph N/A   Overcast
1:55 PM 55.4 °F 55.4 °F 100% 29.93 in 5.0 mi SW 8.1 mph 16.1 mph N/A   Overcast
2:15 PM 55.4 °F 55.4 °F 100% 29.93 in 10.0 mi WSW 8.1 mph - N/A   Overcast
2:35 PM 55.4 °F 55.4 °F 100% 29.94 in 10.0 mi SW 8.1 mph - N/A   Overcast
2:55 PM 55.4 °F 55.4 °F 100% 29.95 in 6.0 mi SW 9.2 mph - N/A   Overcast
3:15 PM 53.6 °F 53.6 °F 100% 29.95 in 3.0 mi SW 10.4 mph - N/A   Overcast
3:35 PM 53.6 °F 53.6 °F 100% 29.95 in 1.8 mi SW 8.1 mph - N/A   Overcast
3:55 PM 53.6 °F 53.6 °F 100% 29.95 in 2.5 mi SW 11.5 mph - N/A   Overcast
4:15 PM 53.6 °F 53.6 °F 100% 29.96 in 4.0 mi WSW 6.9 mph - N/A   Overcast
4:35 PM 53.6 °F 53.6 °F 100% 29.96 in 1.8 mi WSW 10.4 mph 16.1 mph N/A   Overcast
4:55 PM 53.6 °F 53.6 °F 100% 29.97 in 5.0 mi WSW 11.5 mph - N/A   Overcast
5:15 PM 53.6 °F 53.6 °F 100% 29.97 in 4.0 mi WSW 9.2 mph - N/A   Overcast
5:35 PM 53.6 °F 53.6 °F 100% 29.98 in 5.0 mi WSW 6.9 mph - N/A   Overcast
5:55 PM 53.6 °F 53.6 °F 100% 29.98 in 9.0 mi WSW 8.1 mph - N/A   Overcast
6:15 PM 53.6 °F 53.6 °F 100% 29.99 in 7.0 mi WSW 9.2 mph - N/A   Overcast
6:35 PM 53.6 °F 51.8 °F 94% 29.99 in 4.0 mi West 6.9 mph - N/A   Overcast
6:55 PM 51.8 °F 51.8 °F 100% 30.00 in 1.5 mi Calm Calm - N/A   Overcast
7:15 PM 51.8 °F 51.8 °F 100% 30.00 in 1.5 mi Calm Calm - N/A   Overcast
7:35 PM 51.8 °F 51.8 °F 100% 30.00 in 1.0 mi Calm Calm - N/A   Overcast
7:55 PM 51.8 °F 51.8 °F 100% 30.00 in 1.5 mi Calm Calm - N/A   Overcast
8:15 PM 53.6 °F 53.6 °F 100% 30.00 in 5.0 mi Calm Calm - N/A   Overcast
8:35 PM 53.6 °F 53.6 °F 100% 30.00 in 7.0 mi South 3.5 mph - N/A   Overcast
8:55 PM 53.6 °F 53.6 °F 100% 30.01 in 10.0 mi Calm Calm - N/A   Overcast
9:15 PM 53.6 °F 53.6 °F 100% 30.01 in 10.0 mi Calm Calm - N/A   Overcast
9:35 PM 53.6 °F 53.6 °F 100% 30.01 in 6.0 mi Calm Calm - N/A   Overcast
9:55 PM 53.6 °F 53.6 °F 100% 30.02 in 4.0 mi South 3.5 mph - N/A   Overcast
10:15 PM 53.6 °F 53.6 °F 100% 30.02 in 10.0 mi SSW 4.6 mph - N/A   Overcast
10:35 PM 53.6 °F 53.6 °F 100% 30.02 in 10.0 mi Calm Calm - N/A   Overcast
10:55 PM 53.6 °F 53.6 °F 100% 30.03 in 10.0 mi Calm Calm - N/A   Overcast
11:15 PM 53.6 °F 51.8 °F 94% 30.02 in 10.0 mi SE 3.5 mph - N/A   Overcast
11:35 PM 53.6 °F 51.8 °F 94% 30.03 in 10.0 mi Calm Calm - N/A   Overcast
11:55 PM 53.6 °F 51.8 °F 94% 30.03 in 10.0 mi Calm Calm - N/A   Overcast